| time (UTC) | temp F | wind direction | speed MPH | gust MPH | rain 1hr in | rain 24hr in | rain mn in | humidity % | barometer mb |
| 20260503184559 | 59 | 124 | 2.0 | 7.0 | 0.00 | 0.00 | 0.00 | 52 | 1015.1 |
| 20260503183057 | 59 | 227 | 2.0 | 7.0 | 0.00 | 0.00 | 0.00 | 54 | 1015.1 |
| 20260503181604 | 59 | 238 | 5.0 | 9.0 | 0.00 | 0.00 | 0.00 | 54 | 1015.0 |
| 20260503180059 | 59 | 232 | 2.0 | 10.0 | 0.00 | 0.00 | 0.00 | 55 | 1015.0 |
| 20260503174554 | 58 | 146 | 0.0 | 3.0 | 0.00 | 0.00 | 0.00 | 56 | 1015.1 |
| 20260503173058 | 58 | 182 | 1.0 | 6.0 | 0.00 | 0.00 | 0.00 | 56 | 1015.0 |
| 20260503171550 | 58 | 187 | 3.0 | 6.0 | 0.00 | 0.00 | 0.00 | 56 | 1014.9 |
| 20260503081502 | 55 | 80 | 0.0 | 3.0 | 0.00 | 0.00 | 0.00 | 62 | 1013.3 |
| 20260503071604 | 55 | 49 | 0.0 | 1.0 | 0.00 | 0.00 | 0.00 | 62 | 1013.5 |
| 20260503070103 | 55 | 83 | 0.0 | 0.0 | 0.00 | 0.00 | 0.00 | 62 | 1013.5 |
| 20260503060107 | 55 | 184 | 0.0 | 2.0 | 0.00 | 0.00 | 0.00 | 61 | 1013.5 |
| 20260503054556 | 55 | 188 | 0.0 | 2.0 | 0.00 | 0.00 | 0.00 | 61 | 1013.7 |
| 20260503053053 | 55 | 128 | 0.0 | 4.0 | 0.00 | 0.00 | 0.00 | 61 | 1013.7 |
| 20260503051551 | 55 | 113 | 0.0 | 5.0 | 0.00 | 0.00 | 0.00 | 61 | 1013.9 |
| 20260503050052 | 55 | 137 | 1.0 | 4.0 | 0.00 | 0.00 | 0.00 | 61 | 1014.0 |
| 20260503044556 | 55 | 165 | 1.0 | 6.0 | 0.00 | 0.00 | 0.00 | 61 | 1014.0 |
| 20260503043056 | 56 | 205 | 2.0 | 8.0 | 0.00 | 0.00 | 0.00 | 61 | 1013.9 |
| 20260503041549 | 56 | 180 | 0.0 | 6.0 | 0.00 | 0.00 | 0.00 | 61 | 1013.8 |
| 20260503040049 | 56 | 178 | 1.0 | 5.0 | 0.00 | 0.00 | 0.00 | 60 | 1013.6 |
| 20260503034550 | 56 | 196 | 1.0 | 4.0 | 0.00 | 0.00 | 0.00 | 60 | 1013.4 |
| 20260503033100 | 56 | 209 | 0.0 | 5.0 | 0.00 | 0.00 | 0.00 | 60 | 1013.2 |
| 20260503031547 | 56 | 173 | 1.0 | 5.0 | 0.00 | 0.00 | 0.00 | 60 | 1013.0 |
| 20260503030047 | 56 | 215 | 3.0 | 9.0 | 0.00 | 0.00 | 0.00 | 60 | 1013.0 |
| 20260503024545 | 56 | 183 | 3.0 | 8.0 | 0.00 | 0.00 | 0.00 | 59 | 1012.9 |
| 20260503023057 | 56 | 223 | 4.0 | 8.0 | 0.00 | 0.00 | 0.00 | 59 | 1012.9 |
| 20260503021549 | 57 | 211 | 3.0 | 8.0 | 0.00 | 0.00 | 0.00 | 59 | 1012.9 |
| 20260503020043 | 57 | 261 | 2.0 | 7.0 | 0.00 | 0.00 | 0.00 | 59 | 1012.9 |
| 20260503014542 | 57 | 235 | 3.0 | 6.0 | 0.00 | 0.00 | 0.00 | 59 | 1012.9 |
| 20260503013042 | 57 | 214 | 1.0 | 5.0 | 0.00 | 0.00 | 0.00 | 60 | 1013.1 |
| 20260503011554 | 57 | 197 | 3.0 | 10.0 | 0.00 | 0.00 | 0.00 | 60 | 1013.1 |
| 20260503010051 | 57 | 206 | 4.0 | 10.0 | 0.00 | 0.00 | 0.00 | 61 | 1013.0 |
| 20260503004540 | 57 | 213 | 5.0 | 10.0 | 0.00 | 0.00 | 0.00 | 61 | 1013.0 |
| 20260503003049 | 57 | 246 | 4.0 | 11.0 | 0.00 | 0.00 | 0.00 | 61 | 1012.9 |
| 20260503001537 | 58 | 236 | 3.0 | 8.0 | 0.00 | 0.00 | 0.00 | 60 | 1013.1 |
| 20260503000049 | 58 | 145 | 2.0 | 9.0 | 0.00 | 0.00 | 0.00 | 60 | 1013.1 |
| 20260502234537 | 58 | 229 | 3.0 | 11.0 | 0.00 | 0.00 | 0.00 | 59 | 1013.2 |
| 20260502233037 | 59 | 221 | 2.0 | 11.0 | 0.00 | 0.00 | 0.00 | 59 | 1013.1 |
| 20260502231532 | 59 | 205 | 4.0 | 9.0 | 0.00 | 0.00 | 0.00 | 59 | 1013.2 |
| 20260502230032 | 59 | 242 | 5.0 | 10.0 | 0.00 | 0.00 | 0.00 | 59 | 1013.4 |
| 20260502224530 | 60 | 180 | 5.0 | 11.0 | 0.00 | 0.00 | 0.00 | 58 | 1013.7 |
| 20260502223027 | 61 | 254 | 5.0 | 12.0 | 0.00 | 0.00 | 0.00 | 57 | 1013.9 |
| 20260502221526 | 62 | 240 | 5.0 | 11.0 | 0.00 | 0.00 | 0.00 | 56 | 1014.0 |
| 20260502220025 | 62 | 223 | 6.0 | 10.0 | 0.00 | 0.00 | 0.00 | 56 | 1014.2 |
| 20260502214524 | 63 | 191 | 6.0 | 11.0 | 0.00 | 0.00 | 0.00 | 54 | 1014.3 |
| 20260502213028 | 63 | 187 | 6.0 | 9.0 | 0.00 | 0.00 | 0.00 | 54 | 1014.4 |
| 20260502211521 | 62 | 273 | 5.0 | 10.0 | 0.00 | 0.00 | 0.00 | 55 | 1014.7 |
| 20260502210019 | 61 | 230 | 3.0 | 7.0 | 0.00 | 0.00 | 0.00 | 57 | 1014.7 |
| 20260502204524 | 62 | 283 | 4.0 | 9.0 | 0.00 | 0.00 | 0.00 | 56 | 1014.8 |
| 20260502203020 | 62 | 198 | 5.0 | 11.0 | 0.00 | 0.00 | 0.00 | 56 | 1014.9 |
| 20260502201518 | 62 | 190 | 2.0 | 6.0 | 0.00 | 0.00 | 0.00 | 53 | 1015.2 |
| 20260502200015 | 62 | 227 | 3.0 | 8.0 | 0.00 | 0.00 | 0.00 | 53 | 1015.4 |
| 20260502194512 | 61 | 96 | 3.0 | 7.0 | 0.00 | 0.00 | 0.00 | 55 | 1015.7 |
| 20260502193011 | 61 | 277 | 1.0 | 8.0 | 0.00 | 0.00 | 0.00 | 55 | 1015.8 |
| 20260502191518 | 61 | 286 | 2.0 | 8.0 | 0.00 | 0.00 | 0.00 | 54 | 1016.0 |
| 20260502190008 | 60 | 135 | 1.0 | 5.0 | 0.00 | 0.00 | 0.00 | 54 | 1016.0 |